Time,TemperatureF,DewpointF,PressureIn,WindDirection,WindDirectionDegrees,WindSpeedMPH,WindSpeedGustMPH,Humidity,HourlyPrecipIn,Conditions,Clouds,dailyrainin,SoftwareType,DateUTC
2013-02-24 00:01:00,74.0,71.0,29.97,SSE,152,0.0,0.0,89,0.00,,,0.00,,2013-02-24 05:01:00,
2013-02-24 00:11:00,74.0,71.0,29.97,SSE,152,0.0,0.0,89,0.00,,,0.00,,2013-02-24 05:11:00,
2013-02-24 00:22:00,73.0,70.0,29.97,SSE,152,0.0,0.0,90,0.00,,,0.00,,2013-02-24 05:22:00,
2013-02-24 00:32:00,74.0,71.0,29.97,SSE,152,0.0,0.0,90,0.00,,,0.00,,2013-02-24 05:32:00,
2013-02-24 00:42:00,74.0,71.0,29.97,SSE,152,0.0,0.0,90,0.00,,,0.00,,2013-02-24 05:42:00,
2013-02-24 00:52:00,73.0,70.0,29.96,SSE,152,0.0,0.0,91,0.00,,,0.00,,2013-02-24 05:52:00,
2013-02-24 01:01:00,73.0,71.0,29.96,South,184,2.0,2.0,92,0.00,,,0.00,,2013-02-24 06:01:00,
2013-02-24 01:11:00,73.0,71.0,29.96,South,184,2.0,2.0,92,0.00,,,0.00,,2013-02-24 06:11:00,
2013-02-24 01:21:00,73.0,71.0,29.96,South,179,0.0,0.0,92,0.00,,,0.00,,2013-02-24 06:21:00,
2013-02-24 01:32:00,72.0,70.0,29.96,South,174,1.0,0.0,92,0.00,,,0.00,,2013-02-24 06:32:00,
2013-02-24 01:42:00,72.0,70.0,29.96,South,174,1.0,0.0,92,0.00,,,0.00,,2013-02-24 06:42:00,
2013-02-24 01:52:00,72.0,70.0,29.96,SW,215,0.0,0.0,92,0.00,,,0.00,,2013-02-24 06:52:00,
2013-02-24 02:01:00,72.0,70.0,29.96,West,266,1.0,0.0,92,0.00,,,0.00,,2013-02-24 07:01:00,
2013-02-24 02:12:00,72.0,70.0,29.96,West,266,1.0,0.0,92,0.00,,,0.00,,2013-02-24 07:12:00,
2013-02-24 02:21:00,72.0,70.0,29.96,SW,231,0.0,0.0,93,0.00,,,0.00,,2013-02-24 07:21:00,
2013-02-24 02:32:00,73.0,71.0,29.95,SW,215,1.0,2.0,93,0.00,,,0.00,,2013-02-24 07:32:00,
2013-02-24 02:42:00,73.0,71.0,29.95,SW,215,1.0,2.0,93,0.00,,,0.00,,2013-02-24 07:42:00,
2013-02-24 02:51:00,73.0,71.0,29.95,SW,229,2.0,2.0,93,0.00,,,0.00,,2013-02-24 07:51:00,
2013-02-24 03:01:00,73.0,71.0,29.94,West,280,2.0,3.0,92,0.00,,,0.00,,2013-02-24 08:01:00,
2013-02-24 03:11:00,73.0,71.0,29.94,West,280,2.0,3.0,92,0.00,,,0.00,,2013-02-24 08:11:00,
2013-02-24 03:22:00,73.0,71.0,29.94,SW,218,3.0,3.0,92,0.00,,,0.00,,2013-02-24 08:22:00,
2013-02-24 03:32:00,73.0,71.0,29.94,SW,225,1.0,3.0,92,0.00,,,0.00,,2013-02-24 08:32:00,
2013-02-24 03:42:00,73.0,71.0,29.94,SW,225,1.0,3.0,92,0.00,,,0.00,,2013-02-24 08:42:00,
2013-02-24 03:54:00,73.0,71.0,29.93,SSW,211,3.0,3.0,92,0.00,,,0.00,,2013-02-24 08:54:00,
2013-02-24 04:01:00,73.0,71.0,29.93,WSW,239,1.0,1.0,93,0.00,,,0.00,,2013-02-24 09:01:00,
2013-02-24 04:11:00,73.0,71.0,29.93,WSW,239,1.0,1.0,93,0.00,,,0.00,,2013-02-24 09:11:00,
2013-02-24 04:21:00,72.0,70.0,29.93,WSW,242,3.0,3.0,93,0.00,,,0.00,,2013-02-24 09:21:00,
2013-02-24 04:31:00,72.0,70.0,29.93,SSW,198,2.0,0.0,93,0.00,,,0.00,,2013-02-24 09:31:00,
2013-02-24 04:42:00,72.0,70.0,29.93,SSW,198,2.0,0.0,93,0.00,,,0.00,,2013-02-24 09:42:00,
2013-02-24 04:52:00,72.0,70.0,29.93,South,186,1.0,0.0,93,0.00,,,0.00,,2013-02-24 09:52:00,
2013-02-24 05:01:00,72.0,70.0,29.93,South,169,1.0,0.0,93,0.00,,,0.00,,2013-02-24 10:01:00,
2013-02-24 05:11:00,72.0,70.0,29.93,South,169,1.0,0.0,93,0.00,,,0.00,,2013-02-24 10:11:00,
2013-02-24 05:21:00,72.0,70.0,29.93,SSE,150,0.0,0.0,93,0.00,,,0.00,,2013-02-24 10:21:00,
2013-02-24 05:32:00,72.0,70.0,29.93,SSE,150,0.0,0.0,94,0.00,,,0.00,,2013-02-24 10:32:00,
2013-02-24 05:41:00,72.0,70.0,29.93,SSE,150,0.0,0.0,94,0.00,,,0.00,,2013-02-24 10:41:00,
2013-02-24 05:52:00,71.0,69.0,29.93,SSE,150,0.0,0.0,94,0.00,,,0.00,,2013-02-24 10:52:00,
2013-02-24 06:01:00,71.0,69.0,29.93,South,188,3.0,3.0,95,0.00,,,0.00,,2013-02-24 11:01:00,
2013-02-24 06:11:00,71.0,69.0,29.93,South,188,3.0,3.0,95,0.00,,,0.00,,2013-02-24 11:11:00,
2013-02-24 06:22:00,71.0,69.0,29.94,SW,214,1.0,0.0,95,0.00,,,0.00,,2013-02-24 11:22:00,
2013-02-24 06:32:00,71.0,69.0,29.95,SSW,205,0.0,0.0,95,0.00,,,0.00,,2013-02-24 11:32:00,
2013-02-24 06:42:00,71.0,69.0,29.95,SSW,205,0.0,0.0,95,0.00,,,0.00,,2013-02-24 11:42:00,
2013-02-24 06:53:00,71.0,69.0,29.95,SSW,205,0.0,0.0,95,0.00,,,0.00,,2013-02-24 11:53:00,
2013-02-24 07:02:00,71.0,69.0,29.96,SSW,205,0.0,0.0,95,0.00,,,0.00,,2013-02-24 12:02:00,
2013-02-24 07:11:00,71.0,69.0,29.96,SSW,205,0.0,0.0,95,0.00,,,0.00,,2013-02-24 12:11:00,
2013-02-24 07:22:00,71.0,69.0,29.96,SSW,205,0.0,0.0,95,0.00,,,0.00,,2013-02-24 12:22:00,
2013-02-24 07:32:00,71.0,69.0,29.96,SSW,205,0.0,0.0,95,0.00,,,0.00,,2013-02-24 12:32:00,
2013-02-24 07:46:00,71.0,69.0,29.96,SSW,205,0.0,0.0,95,0.00,,,0.00,,2013-02-24 12:46:00,
2013-02-24 07:55:00,72.0,70.0,29.96,SW,221,0.0,0.0,95,0.00,,,0.00,,2013-02-24 12:55:00,
2013-02-24 08:13:00,72.0,70.0,29.97,SW,218,3.0,3.0,95,0.00,,,0.00,,2013-02-24 13:13:00,
2013-02-24 08:26:00,73.0,71.0,29.98,NW,312,1.0,3.0,95,0.00,,,0.00,,2013-02-24 13:26:00,
2013-02-24 08:34:00,73.0,70.0,29.98,West,277,6.0,6.0,91,0.00,,,0.00,,2013-02-24 13:34:00,
2013-02-24 08:44:00,73.0,70.0,29.98,West,277,6.0,6.0,91,0.00,,,0.00,,2013-02-24 13:44:00,
2013-02-24 08:55:00,75.0,71.0,29.98,West,270,6.0,6.0,88,0.00,,,0.00,,2013-02-24 13:55:00,
2013-02-24 09:04:00,76.0,72.0,29.98,SW,218,3.0,4.0,87,0.00,,,0.00,,2013-02-24 14:04:00,
2013-02-24 09:14:00,76.0,71.0,29.99,West,277,6.0,7.0,84,0.00,,,0.00,,2013-02-24 14:14:00,
2013-02-24 09:25:00,76.0,71.0,29.99,West,277,6.0,7.0,84,0.00,,,0.00,,2013-02-24 14:25:00,
2013-02-24 09:34:00,77.0,71.0,29.99,SSW,211,5.0,6.0,83,0.00,,,0.00,,2013-02-24 14:34:00,
2013-02-24 09:44:00,77.0,71.0,29.99,SSW,211,5.0,6.0,83,0.00,,,0.00,,2013-02-24 14:44:00,
2013-02-24 09:55:00,78.0,72.0,29.99,WNW,300,4.0,4.0,81,0.00,,,0.00,,2013-02-24 14:55:00,
2013-02-24 10:13:00,79.0,71.0,30.00,West,280,4.0,4.0,76,0.00,,,0.00,,2013-02-24 15:13:00,
2013-02-24 10:24:00,79.0,71.0,30.00,West,280,4.0,4.0,76,0.00,,,0.00,,2013-02-24 15:24:00,
2013-02-24 10:32:00,80.0,71.0,30.00,SW,217,4.0,5.0,74,0.00,,,0.00,,2013-02-24 15:32:00,
2013-02-24 10:42:00,80.0,71.0,30.00,SW,217,4.0,5.0,74,0.00,,,0.00,,2013-02-24 15:42:00,
2013-02-24 10:53:00,80.0,70.0,30.00,West,270,5.0,5.0,72,0.00,,,0.00,,2013-02-24 15:53:00,
2013-02-24 11:01:00,81.0,71.0,30.00,WSW,255,4.0,4.0,71,0.00,,,0.00,,2013-02-24 16:01:00,
2013-02-24 11:11:00,81.0,69.0,30.00,WNW,293,6.0,7.0,67,0.00,,,0.00,,2013-02-24 16:11:00,
2013-02-24 11:21:00,81.0,69.0,30.00,WNW,293,6.0,7.0,67,0.00,,,0.00,,2013-02-24 16:21:00,
2013-02-24 11:32:00,82.0,69.0,29.99,WSW,239,3.0,5.0,64,0.00,,,0.00,,2013-02-24 16:32:00,
2013-02-24 11:42:00,82.0,69.0,29.99,WSW,239,3.0,5.0,64,0.00,,,0.00,,2013-02-24 16:42:00,
2013-02-24 11:52:00,83.0,69.0,29.98,WSW,238,3.0,3.0,62,0.00,,,0.00,,2013-02-24 16:52:00,
2013-02-24 12:01:00,83.0,66.0,29.98,SSW,201,4.0,4.0,57,0.00,,,0.00,,2013-02-24 17:01:00,
2013-02-24 12:11:00,83.0,66.0,29.98,SSW,201,4.0,4.0,57,0.00,,,0.00,,2013-02-24 17:11:00,
2013-02-24 12:21:00,85.0,66.0,29.97,West,271,4.0,4.0,54,0.00,,,0.00,,2013-02-24 17:21:00,
2013-02-24 12:32:00,85.0,66.0,29.96,South,190,4.0,4.0,53,0.00,,,0.00,,2013-02-24 17:32:00,
2013-02-24 12:42:00,85.0,66.0,29.96,South,190,4.0,4.0,53,0.00,,,0.00,,2013-02-24 17:42:00,
2013-02-24 12:53:00,85.0,65.0,29.96,SSW,200,5.0,5.0,52,0.00,,,0.00,,2013-02-24 17:53:00,
2013-02-24 13:02:00,83.0,72.0,29.95,South,169,5.0,6.0,69,0.00,,,0.00,,2013-02-24 18:02:00,
2013-02-24 13:11:00,83.0,72.0,29.95,South,169,5.0,6.0,69,0.00,,,0.00,,2013-02-24 18:11:00,
2013-02-24 13:22:00,83.0,72.0,29.94,South,191,5.0,5.0,70,0.00,,,0.00,,2013-02-24 18:22:00,
2013-02-24 13:32:00,82.0,72.0,29.94,SSW,197,4.0,4.0,71,0.00,,,0.00,,2013-02-24 18:32:00,
2013-02-24 13:42:00,82.0,72.0,29.94,SSW,197,4.0,4.0,71,0.00,,,0.00,,2013-02-24 18:42:00,
2013-02-24 13:52:00,82.0,72.0,29.93,SSE,155,5.0,5.0,71,0.00,,,0.00,,2013-02-24 18:52:00,
2013-02-24 14:01:00,80.0,71.0,29.92,SE,129,7.0,7.0,74,0.00,,,0.00,,2013-02-24 19:01:00,
2013-02-24 14:12:00,80.0,71.0,29.92,SE,129,7.0,7.0,74,0.00,,,0.00,,2013-02-24 19:12:00,
2013-02-24 14:22:00,82.0,71.0,29.92,SSW,201,3.0,3.0,70,0.00,,,0.00,,2013-02-24 19:22:00,
2013-02-24 14:32:00,81.0,70.0,29.92,SE,139,4.0,4.0,69,0.00,,,0.00,,2013-02-24 19:32:00,
2013-02-24 14:42:00,81.0,70.0,29.92,SE,139,4.0,4.0,69,0.00,,,0.00,,2013-02-24 19:42:00,
2013-02-24 14:52:00,81.0,69.0,29.92,SE,141,6.0,6.0,68,0.00,,,0.00,,2013-02-24 19:52:00,
2013-02-24 15:02:00,81.0,69.0,29.91,SE,142,7.0,7.0,67,0.00,,,0.00,,2013-02-24 20:02:00,
2013-02-24 15:11:00,81.0,69.0,29.91,SE,142,7.0,7.0,67,0.00,,,0.00,,2013-02-24 20:11:00,
2013-02-24 15:21:00,82.0,69.0,29.91,SSE,162,3.0,5.0,64,0.00,,,0.00,,2013-02-24 20:21:00,
2013-02-24 15:32:00,83.0,70.0,29.91,SE,135,4.0,5.0,65,0.00,,,0.00,,2013-02-24 20:32:00,
2013-02-24 15:42:00,83.0,70.0,29.91,SE,135,4.0,5.0,65,0.00,,,0.00,,2013-02-24 20:42:00,
2013-02-24 15:52:00,82.0,69.0,29.91,SE,138,5.0,5.0,65,0.00,,,0.00,,2013-02-24 20:52:00,
2013-02-24 16:02:00,83.0,68.0,29.91,SE,135,5.0,9.0,60,0.00,,,0.00,,2013-02-24 21:02:00,
2013-02-24 16:11:00,83.0,68.0,29.91,SE,135,5.0,9.0,60,0.00,,,0.00,,2013-02-24 21:11:00,
2013-02-24 16:21:00,81.0,68.0,29.91,South,188,6.0,6.0,64,0.00,,,0.00,,2013-02-24 21:21:00,
2013-02-24 16:32:00,82.0,68.0,29.91,SSW,193,6.0,6.0,62,0.00,,,0.00,,2013-02-24 21:32:00,
2013-02-24 16:42:00,82.0,68.0,29.91,SSW,193,6.0,6.0,62,0.00,,,0.00,,2013-02-24 21:42:00,
2013-02-24 16:52:00,82.0,67.0,29.91,SE,134,4.0,4.0,61,0.00,,,0.00,,2013-02-24 21:52:00,
2013-02-24 17:01:00,81.0,69.0,29.91,SSE,156,3.0,3.0,68,0.00,,,0.00,,2013-02-24 22:01:00,
2013-02-24 17:11:00,81.0,69.0,29.91,SSE,156,3.0,3.0,68,0.00,,,0.00,,2013-02-24 22:11:00,
2013-02-24 17:21:00,81.0,68.0,29.91,South,177,6.0,10.0,65,0.00,,,0.00,,2013-02-24 22:21:00,
2013-02-24 17:32:00,81.0,69.0,29.91,South,176,7.0,7.0,67,0.00,,,0.00,,2013-02-24 22:32:00,
2013-02-24 17:42:00,81.0,69.0,29.91,South,176,7.0,7.0,67,0.00,,,0.00,,2013-02-24 22:42:00,
2013-02-24 17:52:00,80.0,68.0,29.91,SW,214,3.0,3.0,67,0.00,,,0.00,,2013-02-24 22:52:00,
2013-02-24 18:02:00,80.0,70.0,29.92,SSW,197,5.0,10.0,72,0.00,,,0.00,,2013-02-24 23:02:00,
2013-02-24 18:11:00,80.0,70.0,29.92,SSW,197,5.0,10.0,72,0.00,,,0.00,,2013-02-24 23:11:00,
2013-02-24 18:21:00,79.0,71.0,29.91,SSE,162,5.0,5.0,77,0.00,,,0.00,,2013-02-24 23:21:00,
2013-02-24 18:32:00,78.0,71.0,29.91,South,184,7.0,7.0,79,0.00,,,0.00,,2013-02-24 23:32:00,
2013-02-24 18:42:00,78.0,71.0,29.91,South,184,7.0,7.0,79,0.00,,,0.00,,2013-02-24 23:42:00,
2013-02-24 18:52:00,78.0,71.0,29.92,SSE,166,3.0,3.0,80,0.00,,,0.00,,2013-02-24 23:52:00,
2013-02-24 19:01:00,78.0,71.0,29.91,South,190,5.0,5.0,80,0.00,,,0.00,,2013-02-25 00:01:00,
2013-02-24 19:11:00,78.0,71.0,29.91,South,190,5.0,5.0,80,0.00,,,0.00,,2013-02-25 00:11:00,
2013-02-24 19:21:00,77.0,71.0,29.92,SE,146,5.0,5.0,82,0.00,,,0.00,,2013-02-25 00:21:00,
2013-02-24 19:32:00,77.0,71.0,29.92,SE,128,4.0,4.0,83,0.00,,,0.00,,2013-02-25 00:32:00,
2013-02-24 19:42:00,77.0,71.0,29.92,SE,128,4.0,4.0,83,0.00,,,0.00,,2013-02-25 00:42:00,
2013-02-24 19:51:00,77.0,71.0,29.92,South,177,4.0,6.0,81,0.00,,,0.00,,2013-02-25 00:51:00,
2013-02-24 20:01:00,77.0,71.0,29.93,SSW,210,7.0,8.0,81,0.00,,,0.00,,2013-02-25 01:01:00,
2013-02-24 20:11:00,77.0,71.0,29.93,SSW,210,7.0,8.0,81,0.00,,,0.00,,2013-02-25 01:11:00,
2013-02-24 20:21:00,77.0,70.0,29.93,SSW,211,4.0,7.0,80,0.00,,,0.00,,2013-02-25 01:21:00,
2013-02-24 20:32:00,77.0,70.0,29.93,SE,143,5.0,5.0,78,0.00,,,0.00,,2013-02-25 01:32:00,
2013-02-24 20:42:00,77.0,70.0,29.93,SE,143,5.0,5.0,78,0.00,,,0.00,,2013-02-25 01:42:00,
2013-02-24 20:52:00,77.0,70.0,29.93,SSW,194,3.0,3.0,79,0.00,,,0.00,,2013-02-25 01:52:00,
2013-02-24 21:01:00,77.0,70.0,29.94,South,180,4.0,4.0,80,0.00,,,0.00,,2013-02-25 02:01:00,
2013-02-24 21:11:00,77.0,71.0,29.93,South,173,2.0,2.0,81,0.00,,,0.00,,2013-02-25 02:11:00,
2013-02-24 21:21:00,77.0,71.0,29.93,South,173,2.0,2.0,81,0.00,,,0.00,,2013-02-25 02:21:00,
2013-02-24 21:32:00,76.0,70.0,29.94,SSW,210,0.0,0.0,81,0.00,,,0.00,,2013-02-25 02:32:00,
2013-02-24 21:42:00,76.0,70.0,29.94,SSW,210,0.0,0.0,81,0.00,,,0.00,,2013-02-25 02:42:00,
2013-02-24 21:52:00,76.0,70.0,29.96,WSW,248,1.0,2.0,81,0.00,,,0.00,,2013-02-25 02:52:00,
2013-02-24 22:01:00,76.0,70.0,29.95,SW,222,2.0,0.0,81,0.00,,,0.00,,2013-02-25 03:01:00,
2013-02-24 22:11:00,76.0,70.0,29.95,SW,222,2.0,0.0,81,0.00,,,0.00,,2013-02-25 03:11:00,
2013-02-24 22:21:00,76.0,70.0,29.95,SW,226,0.0,0.0,81,0.00,,,0.00,,2013-02-25 03:21:00,
2013-02-24 22:32:00,75.0,69.0,29.95,SSW,198,0.0,0.0,82,0.00,,,0.00,,2013-02-25 03:32:00,
2013-02-24 22:42:00,75.0,69.0,29.95,SSW,198,0.0,0.0,82,0.00,,,0.00,,2013-02-25 03:42:00,
2013-02-24 22:52:00,75.0,69.0,29.95,SSW,198,0.0,0.0,82,0.00,,,0.00,,2013-02-25 03:52:00,
2013-02-24 23:02:00,75.0,69.0,29.94,SSW,198,0.0,0.0,83,0.00,,,0.00,,2013-02-25 04:02:00,
2013-02-24 23:11:00,75.0,69.0,29.94,SSW,198,0.0,0.0,83,0.00,,,0.00,,2013-02-25 04:11:00,
2013-02-24 23:21:00,75.0,69.0,29.94,SW,225,0.0,0.0,83,0.00,,,0.00,,2013-02-25 04:21:00,
2013-02-24 23:32:00,74.0,68.0,29.92,West,280,0.0,0.0,82,0.00,,,0.00,,2013-02-25 04:32:00,
2013-02-24 23:42:00,74.0,68.0,29.92,West,280,0.0,0.0,82,0.00,,,0.00,,2013-02-25 04:42:00,
2013-02-24 23:52:00,74.0,68.0,29.92,WSW,252,0.0,0.0,82,0.00,,,0.00,,2013-02-25 04:52:00,